Weather History for Alexander City, AL

Change the Weather History Date:

Thursday, February 20, 2014

  Actual Average (KAUO) Record (KAUO)
Temperature  
Mean Temperature 69 °F -  
Max Temperature 75 °F - 76 °F (1971)
Min Temperature 63 °F - 17 °F (1958)
Degree Days  
Heating Degree Days 0    
Month to date heating degree days  
Since 1 July heating degree days  
Cooling Degree Days 4    
Growing Degree Days 19 (Base 50)    
Moisture  
Dew Point 61 °F    
Average Humidity 75    
Maximum Humidity 83    
Minimum Humidity 56    
Precipitation  
Precipitation 0.01 in - 2.40 in (1961)
Month to date precipitation  
Year to date precipitation  
Sea Level Pressure  
Sea Level Pressure 30.00 in    
Wind  
Wind Speed 5 mph (South)    
Max Wind Speed 14 mph    
Max Gust Speed 22 mph    
Visibility 10 miles    
Events Rain , Thunderstorm    
T = Trace of Precipitation, MM = Missing Value Source: NWS Daily Summary

Daily Weather History Graph

Daily Weather History Graph

Search for Another Location

Airport:

Trip Planner

Search our weather history database for the weather conditions in past years. The results will help you decide how hot, cold, wet, or windy it might be!

Date:

Astronomy

Feb. 20, 2014 Rise Set
Actual Time 6:21 AM CST 5:33 PM CST
Civil Twilight 5:56 AM CST 5:58 PM CST
Nautical Twilight 5:28 AM CST 6:27 PM CST
Astronomical Twilight 4:59 AM CST 6:56 PM CST
Moon 11:06 PM CST (2/20) 9:23 AM CST (2/20)
Length of Visible Light 12h 01m
Length of Day
11h 11m
Waning Gibbous, 70% of the Moon is Illuminated
Feb 20
Waning Gibbous
Feb 22
Last Quarter
Mar 1
New
Mar 8
First Quarter
Mar 16
Full

Hourly Weather History & Observations

Time (CST) Temp. Dew Point Humidity Pressure Visibility Wind Dir Wind Speed Gust Speed Precip Events Conditions
12:15 AM 63.5 °F 58.1 °F 83% 30.04 in 10.0 mi Calm Calm - N/A   Overcast
12:35 AM 65.5 °F 60.1 °F 83% 30.04 in 10.0 mi South 3.5 mph - N/A   Overcast
12:55 AM 65.5 °F 60.1 °F 83% 30.04 in 10.0 mi South 4.6 mph - N/A   Overcast
1:15 AM 65.5 °F 60.1 °F 83% 30.04 in 10.0 mi South 6.9 mph - N/A   Overcast
1:35 AM 65.5 °F 60.1 °F 83% 30.04 in 10.0 mi SSW 5.8 mph - N/A   Overcast
1:55 AM 65.5 °F 59.9 °F 82% 30.04 in 10.0 mi South 3.5 mph - N/A   Overcast
2:15 AM 65.5 °F 59.9 °F 82% 30.04 in 10.0 mi South 4.6 mph - N/A   Overcast
2:35 AM 65.5 °F 59.9 °F 82% 30.04 in 10.0 mi South 3.5 mph - N/A   Overcast
2:55 AM 65.5 °F 59.9 °F 82% 30.04 in 10.0 mi South 4.6 mph - N/A   Overcast
3:15 AM 65.5 °F 59.9 °F 82% 30.03 in 10.0 mi South 3.5 mph - N/A   Overcast
3:35 AM 65.5 °F 59.9 °F 82% 30.03 in 10.0 mi SSE 3.5 mph - N/A   Mostly Cloudy
3:55 AM 65.5 °F 59.9 °F 82% 30.04 in 10.0 mi Calm Calm - N/A   Overcast
4:15 AM 65.5 °F 59.9 °F 82% 30.04 in 10.0 mi Calm Calm - N/A   Overcast
4:35 AM 65.5 °F 59.9 °F 82% 30.04 in 10.0 mi Calm Calm - N/A   Overcast
4:55 AM 65.5 °F 59.9 °F 82% 30.04 in 10.0 mi SSE 3.5 mph - N/A   Overcast
5:15 AM 65.5 °F 59.9 °F 82% 30.04 in 10.0 mi SSE 4.6 mph - N/A   Overcast
5:35 AM 65.5 °F 59.4 °F 81% 30.04 in 10.0 mi SSE 4.6 mph - N/A   Overcast
5:55 AM 65.5 °F 59.2 °F 80% 30.05 in 10.0 mi South 5.8 mph - N/A   Overcast
6:15 AM 65.5 °F 59.2 °F 80% 30.05 in 10.0 mi South 8.1 mph - N/A   Overcast
6:35 AM 65.5 °F 59.2 °F 80% 30.05 in 10.0 mi SSE 5.8 mph - N/A   Overcast
6:55 AM 65.5 °F 59.4 °F 81% 30.06 in 10.0 mi SE 4.6 mph - N/A   Overcast
7:15 AM 65.3 °F 59.4 °F 81% 30.06 in 10.0 mi SSE 5.8 mph - N/A   Mostly Cloudy
7:35 AM 65.5 °F 58.5 °F 78% 30.06 in 10.0 mi SSE 4.6 mph - N/A   Mostly Cloudy
7:55 AM 65.5 °F 58.6 °F 79% 30.07 in 10.0 mi South 3.5 mph - N/A   Overcast
8:15 AM 65.5 °F 58.6 °F 79% 30.07 in 10.0 mi SSE 5.8 mph - N/A   Overcast
8:35 AM 65.5 °F 58.5 °F 78% 30.08 in 10.0 mi South 5.8 mph - N/A   Overcast
8:55 AM 68.0 °F 60.4 °F 77% 30.08 in 10.0 mi South 4.6 mph - N/A   Overcast
9:15 AM 68.0 °F 60.3 °F 76% 30.08 in 10.0 mi SSE 5.8 mph - N/A   Overcast
9:35 AM 68.0 °F 60.1 °F 76% 30.07 in 10.0 mi SE 4.6 mph - N/A   Overcast
9:55 AM 70.7 °F 61.9 °F 74% 30.07 in 10.0 mi SE 4.6 mph - N/A   Mostly Cloudy
10:15 AM 70.7 °F 60.8 °F 71% 30.06 in 10.0 mi SE 6.9 mph - N/A   Scattered Clouds
10:35 AM 70.7 °F 60.1 °F 69% 30.06 in 10.0 mi SE 8.1 mph - N/A   Mostly Cloudy
10:55 AM 70.7 °F 59.5 °F 68% 30.06 in 10.0 mi South 10.4 mph 16.1 mph N/A   Overcast
11:15 AM 70.7 °F 58.5 °F 65% 30.05 in 10.0 mi SSE 10.4 mph - N/A   Mostly Cloudy
11:35 AM 70.7 °F 58.1 °F 64% 30.05 in 10.0 mi SSE 8.1 mph 16.1 mph N/A   Mostly Cloudy
11:55 AM 71.8 °F 59.0 °F 64% 30.04 in 10.0 mi SE 8.1 mph - N/A   Mostly Cloudy
12:15 PM 73.9 °F 60.3 °F 62% 30.02 in 10.0 mi South 9.2 mph 16.1 mph N/A   Mostly Cloudy
12:35 PM 75.6 °F 60.1 °F 59% 30.01 in 10.0 mi SSE 8.1 mph 16.1 mph N/A   Mostly Cloudy
12:55 PM 75.6 °F 59.0 °F 56% 30.00 in 10.0 mi SE 10.4 mph 18.4 mph N/A   Mostly Cloudy
1:15 PM 75.6 °F 59.9 °F 58% 29.99 in 10.0 mi South 8.1 mph 17.3 mph N/A   Mostly Cloudy
1:35 PM 75.6 °F 59.9 °F 58% 29.98 in 10.0 mi SSE 3.5 mph - N/A   Overcast
1:55 PM 75.6 °F 59.9 °F 58% 29.98 in 10.0 mi South 6.9 mph - N/A   Mostly Cloudy
2:15 PM 75.6 °F 58.8 °F 56% 29.98 in 10.0 mi South 5.8 mph - N/A   Mostly Cloudy
2:35 PM 75.6 °F 59.2 °F 57% 29.98 in 10.0 mi SW 6.9 mph - N/A   Overcast
2:55 PM 71.4 °F 60.8 °F 69% 29.98 in 7.0 mi WSW 8.1 mph - N/A   Drizzle
3:15 PM 70.7 °F 63.1 °F 77% 29.99 in 7.0 mi WSW 4.6 mph - N/A Rain Rain
3:35 PM 70.7 °F 64.0 °F 79% 29.99 in 7.0 mi WSW 8.1 mph - N/A   Drizzle
3:55 PM 70.7 °F 64.8 °F 81% 29.99 in 10.0 mi Calm Calm - N/A   Overcast
4:15 PM 70.7 °F 64.9 °F 82% 29.98 in 10.0 mi Calm Calm - 0.01 in   Mostly Cloudy
4:35 PM 70.7 °F 63.0 °F 76% 29.97 in 10.0 mi South 4.6 mph - 0.01 in   Scattered Clouds
4:55 PM 70.7 °F 61.3 °F 72% 29.96 in 10.0 mi Calm Calm - 0.01 in   Clear
5:15 PM 70.7 °F 61.9 °F 74% 29.96 in 10.0 mi Calm Calm - N/A   Clear
5:35 PM 70.7 °F 63.1 °F 77% 29.97 in 10.0 mi Calm Calm - N/A   Clear
5:55 PM 70.5 °F 62.8 °F 76% 29.97 in 10.0 mi Calm Calm - N/A   Scattered Clouds
6:15 PM 68.0 °F 62.4 °F 82% 29.96 in 10.0 mi Calm Calm - N/A   Scattered Clouds
6:35 PM 70.7 °F 63.1 °F 77% 29.97 in 10.0 mi Calm Calm - N/A   Clear
6:55 PM 70.7 °F 61.3 °F 72% 29.96 in 10.0 mi South 3.5 mph - N/A   Scattered Clouds
7:15 PM 70.7 °F 61.5 °F 73% 29.96 in 10.0 mi South 4.6 mph - N/A   Overcast
7:35 PM 70.7 °F 61.2 °F 72% 29.96 in 10.0 mi South 5.8 mph - N/A   Mostly Cloudy
7:55 PM 70.7 °F 60.8 °F 71% 29.96 in 10.0 mi South 5.8 mph - N/A   Mostly Cloudy
8:15 PM 70.7 °F 61.0 °F 71% 29.94 in 10.0 mi South 5.8 mph - N/A   Mostly Cloudy
8:35 PM 70.7 °F 61.7 °F 73% 29.93 in 10.0 mi South 8.1 mph - N/A   Scattered Clouds
8:55 PM 70.7 °F 62.1 °F 74% 29.92 in 10.0 mi South 8.1 mph - N/A   Scattered Clouds
9:15 PM 70.7 °F 62.6 °F 75% 29.92 in 10.0 mi South 6.9 mph - N/A   Mostly Cloudy
9:35 PM 70.7 °F 62.6 °F 75% 29.91 in 10.0 mi South 10.4 mph 17.3 mph N/A   Overcast
9:55 PM 70.7 °F 62.6 °F 75% 29.90 in 10.0 mi South 12.7 mph 17.3 mph N/A   Overcast
10:15 PM 70.7 °F 62.6 °F 75% 29.88 in 10.0 mi South 6.9 mph 16.1 mph N/A   Overcast
10:35 PM 70.7 °F 62.6 °F 75% 29.89 in 10.0 mi South 9.2 mph 18.4 mph N/A   Overcast
10:55 PM 70.7 °F 62.6 °F 75% 29.89 in 10.0 mi South 10.4 mph 21.9 mph N/A   Overcast
11:15 PM 70.7 °F 63.0 °F 76% 29.90 in 10.0 mi South 13.8 mph 21.9 mph N/A Thunderstorm Overcast
11:35 PM 70.7 °F 63.5 °F 78% 29.89 in 10.0 mi South 8.1 mph - N/A Thunderstorm Overcast
11:55 PM 70.7 °F 63.5 °F 78% 29.88 in 10.0 mi South 5.8 mph - N/A   Overcast